User: anonymous   Login
Location: Unspecified
(0.0000°N, 0.0000°E)
Time: 16:36:15
(UTC+00:00)
Language:

FALCON 9 R/B - Orbit

View from above orbital plane
View from above orbital plane
View from above satellite
View from above satellite

Ground track
Ground track

The orbit data is extracted from the following two-line orbital elements,

1 39271U 13055G   21269.08082458  .00010813  00000-0  25093-3 0  9996
2 39271  80.9617 123.9158 0562449 203.7610 153.6680 14.54326869418250
Epoch (UTC): 26 September 2021 01:56:23
Eccentricity: 0.0562449
inclination: 80.9617°
perigee height: 313 km
apogee height: 1110 km
right ascension of ascending node: 123.9158°
argument of perigee: 203.7610°
revolutions per day: 14.54326869
mean anomaly at epoch: 153.6680°
orbit number at epoch: 41825

The dashed part of the orbit path shows where the satellite is in the earth's shadow,  

DLR